Location: DaVinci Observatory
(43.1080°N, 78.6453°W)
Time: 23:13:50
(UTC-04:00)

Vanguard 1 Rocket - Visible Passes

Search period start: 23 June 2018 00:00
Search period end: 03 July 2018 00:00
Orbit: 653 x 4224 km, 34.3° (Epoch: 23 June)

Date Brightness Start Highest point End Pass type
(mag) Time Alt. Az. Time Alt. Az. Time Alt. Az.
23 Jun 9.4 22:01:05 10° WSW 22:06:30 25° SSW 22:13:56 12° SSE visible
24 Jun 10.1 23:16:57 10° SW 23:21:11 14° SSW 23:23:37 13° S visible
25 Jun 9.6 22:05:07 10° WSW 22:09:40 18° SSW 22:16:02 10° SSE visible
27 Jun 9.9 22:10:08 10° SW 22:12:51 12° SSW 22:16:06 10° S visible
